CAPE
0 0 7 1 4 0 9 91 74 98 27 0 0 0 0 2 0 0 0 0 0 0 0 39 31 21 9 75 68 705 752 1964 3103 2746 3079 2849 2496 2883 2580 2711 3530 2465 2330 2474
0 0 0 0 0 8 10 103 13 12 34 0 0 0 0 0 0 0 0 0 0 0 1 42 50 61 65 75 223 260 791 1556 3288 2713 2733 2661 2593 1920 2288 2238 2771 3098 1987 1662
0 0 0 0 1 72 10 7 25 7 2 0 0 0 0 0 0 0 0 0 1 27 0 64 59 126 122 93 96 372 1073 1457 2268 3202 3273 3874 3293 3598 3082 2928 3432 2637 1970 2086
0 0 0 0 23 33 59 1 11 18 41 0 0 0 0 0 0 0 0 4 1 1 18 75 60 80 111 175 253 114 118 1485 1248 3099 2728 3717 2872 2162 2698 2149 2627 2787 2984 2981
0 0 0 0 0 8 7 30 41 8 33 2 3 0 0 0 0 0 0 8 5 54 31 51 34 129 286 774 962 1166 1575 2066 2157 3449 3336 3329 3256 3037 2972 2566 4364 3468 3354 3016
0 1 2 0 1 1 1 3 6 6 26 29 0 0 0 0 0 0 0 7 2 9 34 49 91 196 289 560 1022 1331 1649 2011 2064 1767 1964 2528 2963 3019 3097 2447 2106 2536 2585 2536
0 7 0 1 15 6 18 113 40 37 25 0 0 1 0 8 0 0 0 0 8 6 5 9 29 23 146 171 341 407 689 628 728 811 816 944 942 2397 2525 2185 1485 1577 2028 2097
0 24 5 16 21 16 21 55 47 20 15 0 0 0 2 15 0 0 3 0 4 6 1 1 6 0 0 9 44 16 40 43 107 279 257 412 487 310 402 640 670 432 330 366
3 43 1 3 30 24 17 0 2 17 0 23 30 71 31 1 28 46 22 20 1 43 54 1 0 5 0 1 10 0 7 0 0 2 129 182 189 213 141 191 434 386 383 248
35 66 0 0 0 0 21 9 13 10 125 32 78 116 109 52 29 45 25 57 27 8 0 0 1 52 45 31 0 0 0 0 0 0 0 6 65 39 96 121 164 223 397 182
34 129 25 14 0 1 37 35 130 92 115 184 29 3 196 133 34 63 44 9 0 0 0 4 12 22 0 6 5 0 0 0 0 0 0 0 0 0 1 29 57 110 144 146
114 234 135 23 50 1 36 35 334 465 134 103 228 208 131 48 83 107 7 0 0 0 0 0 4 3 0 0 0 1 0 0 0 0 0 0 0 0 11 14 6 3 1 2
184 293 403 68 72 30 1 93 82 127 316 121 233 9 140 92 150 40 36 7 5 0 0 0 0 0 3 0 0 0 4 5 2 0 0 1 5 0 0 0 0 0 0 0
108 146 284 249 167 167 23 109 167 141 370 158 164 180 138 92 182 141 35 6 2 38 3 1 0 1 3 2 3 8 6 6 9 0 0 0 0 0 0 0 0 0 0 0
83 51 120 162 25 71 132 25 14 10 55 76 59 107 34 39 18 8 1 0 0 0 0 0 3 2 9 28 32 23 23 16 6 0 2 1 0 0 0 0 0 0 0 0
112 197 133 72 32 0 0 0 9 16 41 28 68 53 8 113 0 0 0 0 0 0 0 2 4 6 21 45 61 66 45 19 0 6 0 0 0 0 0 0 2 0 0 3
192 24 84 83 14 0 0 0 1 0 1 6 0 0 0 0 0 0 3 11 12 9 12 15 10 25 41 28 49 60 12 0 0 6 1 0 0 0 0 0 0 0 0 1
169 0 55 29 53 0 0 0 0 0 0 0 0 0 0 0 0 2 17 18 18 9 6 2 0 7 17 47 61 51 12 10 13 10 5 0 0 0 0 0 0 0 0 0
360 311 275 71 66 2 0 0 0 0 0 4 12 2 24 8 0 3 4 0 0 0 0 1 0 4 36 35 47 50 43 25 17 4 3 0 0 0 0 0 0 0 0 0
35 206 313 43 87 17 30 0 0 0 39 0 0 0 0 0 0 11 0 0 0 5 8 1 0 15 60 75 132 57 34 24 6 9 1 0 0 0 0 0 0 0 0 0
0 151 27 33 55 38 5 0 0 0 31 3 0 0 0 0 2 4 0 0 0 0 0 0 17 59 103 125 79 28 1 3 13 0 0 0 0 0 0 0 0 0 1 1
17 46 79 176 28 15 13 0 25 9 0 0 0 0 2 0 0 0 0 0 6 18 22 18 29 39 29 10 3 0 2 0 0 0 0 0 0 0 0 0 0 0 0 0
21 22 122 81 93 179 67 3 0 0 0 0 3 0 0 0 1 3 17 19 15 14 11 0 0 0 0 0 0 0 0 0 0 0 0 0 0 0 0 0 0 1 5 3
53 71 65 65 105 34 10 1 0 0 3 0 0 0 9 7 10 4 2 0 0 0 0 0 0 0 0 0 0 0 0 0 0 0 0 0 0 0 2 0 0 4 1 0
71 73 96 88 32 0 0 1 0 6 0 2 4 0 0 0 0 0 0 0 0 0 0 0 0 0 0 0 0 0 0 0 0 0 0 0 1 3 11 12 3 0 0 0
50 36 20 46 14 17 8 5 3 0 5 0 0 0 0 0 0 0 0 0 0 0 0 0 0 0 0 0 0 0 0 0 0 0 0 3 0 5 9 0 0 0 3 0
CIN
0 0 0 0 -2 0 -21 -6 -14 -4 -8 0 0 0 0 -87 0 0 0 0 0 0 -7 -19 -62 -87 -96 -96 -97 -73 -77 -62 -28 -29 -22 -38 -38 -15 -12 -13 -23 -79 -43 -15
0 0 0 0 0 -7 -4 -1 -1 -2 -22 0 0 0 0 0 0 0 0 0 0 0 -1 -15 -54 -68 -93 -117 -89 -79 -94 -84 -28 -48 -53 -22 -37 -43 -21 -27 -43 -49 -130 -35
0 0 0 0 -1 -3 -5 -7 0 -7 -2 0 0 0 0 0 0 0 0 0 -3 -14 0 -1 -13 -79 -91 -89 -104 -102 -68 -85 -63 -13 -18 -19 -30 -26 -20 -20 -59 -98 -113 -16
0 0 0 -1 -1 -1 -1 -2 -9 -10 -1 0 0 0 0 0 0 0 0 -11 -1 -2 -4 -13 -5 -25 -51 -65 -86 -137 -165 -66 -99 -4 -17 -10 -16 -28 -18 -35 -27 -58 -57 -38
0 0 0 0 0 -2 -11 -5 -8 -15 -2 -1 0 0 0 0 0 0 0 -7 -12 -10 -21 -11 -21 -28 -29 -25 -46 -61 -35 -16 -9 -3 -5 -13 -9 -11 -17 -32 -58 -75 -37 -15
0 -2 -2 0 -1 -1 -2 -35 -5 -11 -2 -1 0 -1 0 0 0 0 0 -24 -21 -28 -18 -29 -4 -19 -22 -7 -18 -17 -14 -7 -10 -22 -6 -5 -5 -9 -20 -51 -50 -56 -35 -22
0 -1 -2 -2 -2 -2 -1 -3 -4 -1 -1 0 -1 0 0 -4 0 0 0 0 -162 -112 -124 -90 -26 -96 -53 -69 -45 -61 -36 -59 -61 -40 -38 -75 -36 -7 -6 -18 -14 -23 -19 -18
0 -2 -2 -1 0 -2 -7 0 0 -2 0 0 0 0 0 -7 0 -3 -21 0 -184 -152 -39 -116 -114 0 0 -152 -100 -130 -133 -148 -128 -67 -95 -66 -75 -59 -44 -74 -87 -32 -24 -2
-1 -3 -9 -3 -2 -10 -1 0 -14 -15 0 -19 -8 -33 -2 -7 -21 -38 -64 -63 -4 -18 -16 -47 -2 -22 -5 -222 -66 0 -77 0 0 -5 -63 -67 -90 -97 -136 -145 -110 -3 -56 -3
-3 -1 -4 0 0 0 -5 -1 -15 -9 -15 -4 -10 -7 -11 -43 -43 -48 -60 -59 -52 -53 0 -1 -2 -7 -7 -17 0 0 0 0 0 0 0 -47 -86 -106 -106 -108 -114 -134 -124 -189
-18 -4 -21 -3 0 -1 -3 -21 -1 0 0 0 0 -30 -2 -4 -27 -31 -21 -23 0 0 0 -3 -6 -10 0 -3 -12 0 0 0 0 0 0 0 0 0 -15 -119 -112 -88 -87 -100
-2 -1 0 -2 -2 -9 -1 -1 -1 -2 -6 -5 -39 0 -92 -7 -13 -1 -25 0 0 0 0 0 -5 -5 0 -1 0 -1 0 0 0 0 0 0 0 0 -73 -72 -93 -22 -7 -6
-8 -8 0 -8 -40 -3 0 -1 -2 0 -8 -3 -7 -75 -15 -3 -25 -15 -4 -8 -3 0 0 0 0 0 -1 0 0 0 -2 -2 -3 0 0 -3 -8 0 0 0 0 0 0 0
-68 -10 -9 -6 -14 -1 -9 -2 -1 -9 -28 -25 -8 -13 -7 -1 -3 -29 -1 -3 -4 -8 -1 -2 0 -1 -3 -4 -2 -2 -2 -2 -5 0 0 0 0 0 0 0 0 0 0 0
-31 -34 -1 -3 -107 -18 -1 -4 -3 -5 -2 -9 -5 -45 -7 -53 -95 -5 0 0 0 0 0 0 -5 -1 -4 -2 -4 -3 -3 -3 -3 0 -3 -8 0 0 0 0 0 0 0 0
-38 -8 -12 -23 -1 0 0 -2 -9 -10 -2 -39 -46 -27 -20 -13 0 0 0 0 0 0 0 -3 -1 -2 -1 -3 -5 -4 -2 -2 0 -4 0 0 0 0 0 0 -18 -1 -1 -12
-10 -89 -27 -21 -26 0 -1 -2 -7 0 -11 -1 -1 0 -2 0 0 0 -1 -1 -2 -2 -2 -3 -2 -5 -12 -8 -9 -5 -5 0 0 -2 -1 0 0 0 0 0 0 0 0 -17
-13 0 -1 0 -1 0 0 0 0 0 0 0 0 0 0 0 -1 0 -2 -13 -17 -26 -2 -1 -3 -7 -14 -8 -4 -5 -5 -5 -2 0 0 0 0 0 0 0 0 0 0 0
-1 -3 -6 -3 -8 -1 0 0 0 0 0 -18 -5 -1 -2 -15 -2 -7 -41 0 0 0 -1 -7 -1 -12 -4 -7 -4 -6 -4 -3 -1 0 -1 0 0 0 0 0 0 0 0 0
-2 -6 -2 -6 -5 0 -4 0 0 0 -1 0 0 0 0 0 0 -16 0 0 0 -5 -4 -9 -1 -5 -3 -2 -9 -24 -9 -3 -3 0 -1 -3 0 0 0 0 0 0 0 0
-1 -1 -2 -1 -1 -1 0 0 0 0 0 -7 0 0 0 0 -3 -15 0 0 0 0 0 -3 -2 -1 -4 -11 -13 -11 -5 -4 -10 0 0 0 0 0 0 0 0 0 0 0
0 -2 -1 -1 -1 -1 -2 0 0 -2 -1 0 0 -1 -4 0 0 0 0 0 -7 0 -1 -1 -1 -4 -11 -13 -9 0 -6 0 0 0 0 0 0 0 0 0 0 0 0 0
0 -3 -1 -2 -2 0 -2 -4 0 0 0 0 -2 -1 0 0 0 -1 0 -1 -1 -1 -2 0 0 0 0 0 0 0 0 0 0 0 0 0 0 0 0 0 0 0 0 0
-2 -1 -2 -1 -1 -7 -2 -1 0 0 -1 0 0 -1 -1 -2 0 0 -1 0 0 0 0 0 0 0 0 0 0 0 0 0 0 0 0 0 0 0 0 -1 -1 0 0 0
-1 -8 -3 -3 -4 -1 0 -1 0 -3 -1 -2 -1 0 0 0 0 0 0 0 0 0 0 0 0 0 0 0 0 0 0 0 0 0 0 0 0 0 0 -1 -1 0 0 0
-1 -2 -1 0 -6 -3 0 -1 -2 0 -2 0 0 0 0 0 0 0 0 0 0 0 0 0 0 0 0 0 0 0 0 0 0 0 0 0 0 -1 -1 0 0 0 0 0
Wind_Speed
nan nan nan nan nan nan nan nan nan nan nan nan nan nan nan nan nan nan nan nan nan nan nan nan nan nan nan nan nan 51 53 52 54 59 56 54 51 51 48 45 43 48 49 47
nan nan nan nan nan nan nan 7 nan nan nan nan nan nan nan nan nan nan nan nan nan nan nan nan nan nan nan nan 58 55 53 55 56 56 53 52 53 49 48 45 46 49 53 58
nan nan nan nan nan nan nan nan nan nan nan nan nan nan nan nan nan nan nan nan nan nan nan nan nan 74 70 nan nan 60 57 58 49 44 49 50 51 46 48 48 50 49 52 46
nan nan nan nan nan nan nan nan nan nan nan nan nan nan nan nan nan nan nan nan nan nan nan nan nan nan 70 62 67 68 56 43 41 43 44 45 46 45 46 43 48 48 45 48
nan nan nan nan nan nan nan nan nan nan nan nan nan nan nan nan nan nan nan nan nan nan nan nan nan 68 58 55 52 42 42 45 47 46 43 46 42 44 42 41 52 58 51 43
nan nan nan nan nan nan nan nan nan nan nan nan nan nan nan nan nan nan nan nan nan nan nan nan nan 35 38 38 45 48 48 47 47 48 44 43 43 41 40 46 50 54 51 49
nan nan nan nan nan nan nan 14 nan nan nan nan nan nan nan nan nan nan nan nan nan nan nan nan nan nan 44 45 46 48 50 49 49 49 50 50 48 45 45 47 53 49 53 53
nan nan nan nan nan nan nan nan nan nan nan nan nan nan nan nan nan nan nan nan nan nan nan nan nan nan nan nan nan nan nan nan 49 50 50 50 49 50 54 54 52 55 55 59
nan nan nan nan nan nan nan nan nan nan nan nan nan nan nan nan nan nan nan nan nan nan nan nan nan nan nan nan nan nan nan nan nan nan 50 49 48 50 53 53 54 55 57 58
nan nan nan nan nan nan nan nan nan nan 21 nan nan 28 25 nan nan nan nan nan nan nan nan nan nan nan nan nan nan nan nan nan nan nan nan nan nan nan nan 49 47 48 50 52
nan 22 nan nan nan nan nan nan 21 nan 11 6 nan nan 25 24 nan nan nan nan nan nan nan nan nan nan nan nan nan nan nan nan nan nan nan nan nan nan nan nan nan 49 51 52
23 39 24 nan nan nan nan nan 10 23 22 29 25 25 21 nan nan 23 nan nan nan nan nan nan nan nan nan nan nan nan nan nan nan nan nan nan nan nan nan nan nan nan nan nan
36 33 22 nan nan nan nan nan nan 6 39 30 27 nan 26 nan 20 nan nan nan nan nan nan nan nan nan nan nan nan nan nan nan nan nan nan nan nan nan nan nan nan nan nan nan
46 31 21 21 22 13 nan 17 17 28 34 27 28 31 27 nan 38 30 nan nan nan nan nan nan nan nan nan nan nan nan nan nan nan nan nan nan nan nan nan nan nan nan nan nan
nan nan 30 28 nan nan 19 nan nan nan nan nan nan 37 nan nan nan nan nan nan nan nan nan nan nan nan nan nan nan nan nan nan nan nan nan nan nan nan nan nan nan nan nan nan
30 38 38 nan nan nan nan nan nan nan nan nan nan nan nan 12 nan nan nan nan nan nan nan nan nan nan nan nan nan nan nan nan nan nan nan nan nan nan nan nan nan nan nan nan
34 nan nan nan nan nan nan nan nan nan nan nan nan nan nan nan nan nan nan nan nan nan nan nan nan nan nan nan nan nan nan nan nan nan nan nan nan nan nan nan nan nan nan nan
27 nan nan nan nan nan nan nan nan nan nan nan nan nan nan nan nan nan nan nan nan nan nan nan nan nan nan nan nan nan nan nan nan nan nan nan nan nan nan nan nan nan nan nan
12 14 14 nan nan nan nan nan nan nan nan nan nan nan nan nan nan nan nan nan nan nan nan nan nan nan nan nan nan nan nan nan nan nan nan nan nan nan nan nan nan nan nan nan
nan 29 23 nan nan nan nan nan nan nan nan nan nan nan nan nan nan nan nan nan nan nan nan nan nan nan nan nan 47 nan nan nan nan nan nan nan nan nan nan nan nan nan nan nan
nan 20 nan nan nan nan nan nan nan nan nan nan nan nan nan nan nan nan nan nan nan nan nan nan nan nan 41 43 nan nan nan nan nan nan nan nan nan nan nan nan nan nan nan nan
nan nan nan 20 nan nan nan nan nan nan nan nan nan nan nan nan nan nan nan nan nan nan nan nan nan nan nan nan nan nan nan nan nan nan nan nan nan nan nan nan nan nan nan nan
nan nan 17 nan nan 29 nan nan nan nan nan nan nan nan nan nan nan nan nan nan nan nan nan nan nan nan nan nan nan nan nan nan nan nan nan nan nan nan nan nan nan nan nan nan
nan nan nan nan 26 nan nan nan nan nan nan nan nan nan nan nan nan nan nan nan nan nan nan nan nan nan nan nan nan nan nan nan nan nan nan nan nan nan nan nan nan nan nan nan
nan nan nan nan nan nan nan nan nan nan nan nan nan nan nan nan nan nan nan nan nan nan nan nan nan nan nan nan nan nan nan nan nan nan nan nan nan nan nan nan nan nan nan nan
nan nan nan nan nan nan nan nan nan nan nan nan nan nan nan nan nan nan nan nan nan nan nan nan nan nan nan nan nan nan nan nan nan nan nan nan nan nan nan nan nan nan nan nan
Wind_Direction
nan nan nan nan nan nan nan nan nan nan nan nan nan nan nan nan nan nan nan nan nan nan nan nan nan nan nan nan nan 253 265 265 269 275 279 278 276 277 282 285 291 297 307 290
nan nan nan nan nan nan nan 195 nan nan nan nan nan nan nan nan nan nan nan nan nan nan nan nan nan nan nan nan 249 257 256 262 266 270 273 273 278 282 286 289 293 297 289 273
nan nan nan nan nan nan nan nan nan nan nan nan nan nan nan nan nan nan nan nan nan nan nan nan nan 240 238 nan nan 252 257 261 261 267 271 274 274 278 282 289 290 292 298 305
nan nan nan nan nan nan nan nan nan nan nan nan nan nan nan nan nan nan nan nan nan nan nan nan nan nan 242 243 249 251 254 255 264 270 271 270 279 283 283 286 293 290 293 291
nan nan nan nan nan nan nan nan nan nan nan nan nan nan nan nan nan nan nan nan nan nan nan nan nan 247 243 242 246 249 252 256 261 262 267 266 269 274 277 277 279 281 286 280
nan nan nan nan nan nan nan nan nan nan nan nan nan nan nan nan nan nan nan nan nan nan nan nan nan 256 254 256 258 254 255 258 260 264 266 266 267 267 270 273 279 284 288 293
nan nan nan nan nan nan nan 189 nan nan nan nan nan nan nan nan nan nan nan nan nan nan nan nan nan nan 264 258 259 262 261 259 258 260 262 263 263 269 270 271 277 286 286 286
nan nan nan nan nan nan nan nan nan nan nan nan nan nan nan nan nan nan nan nan nan nan nan nan nan nan nan nan nan nan nan nan 266 267 268 266 263 268 270 271 272 275 280 279
nan nan nan nan nan nan nan nan nan nan nan nan nan nan nan nan nan nan nan nan nan nan nan nan nan nan nan nan nan nan nan nan nan nan 264 267 266 267 268 267 269 269 270 272
nan nan nan nan nan nan nan nan nan nan 148 nan nan 243 255 nan nan nan nan nan nan nan nan nan nan nan nan nan nan nan nan nan nan nan nan nan nan nan nan 268 267 268 269 268
nan 166 nan nan nan nan nan nan 174 nan 212 291 nan nan 187 261 nan nan nan nan nan nan nan nan nan nan nan nan nan nan nan nan nan nan nan nan nan nan nan nan nan 273 272 273
263 177 243 nan nan nan nan nan 180 206 187 209 240 272 239 nan nan 266 nan nan nan nan nan nan nan nan nan nan nan nan nan nan nan nan nan nan nan nan nan nan nan nan nan nan
231 199 216 nan nan nan nan nan nan 213 208 202 211 nan 214 nan 265 nan nan nan nan nan nan nan nan nan nan nan nan nan nan nan nan nan nan nan nan nan nan nan nan nan nan nan
209 214 220 218 225 205 nan 189 189 234 232 216 203 278 332 nan 281 275 nan nan nan nan nan nan nan nan nan nan nan nan nan nan nan nan nan nan nan nan nan nan nan nan nan nan
nan nan 213 219 nan nan 190 nan nan nan nan nan nan 217 nan nan nan nan nan nan nan nan nan nan nan nan nan nan nan nan nan nan nan nan nan nan nan nan nan nan nan nan nan nan
217 218 225 nan nan nan nan nan nan nan nan nan nan nan nan 289 nan nan nan nan nan nan nan nan nan nan nan nan nan nan nan nan nan nan nan nan nan nan nan nan nan nan nan nan
224 nan nan nan nan nan nan nan nan nan nan nan nan nan nan nan nan nan nan nan nan nan nan nan nan nan nan nan nan nan nan nan nan nan nan nan nan nan nan nan nan nan nan nan
242 nan nan nan nan nan nan nan nan nan nan nan nan nan nan nan nan nan nan nan nan nan nan nan nan nan nan nan nan nan nan nan nan nan nan nan nan nan nan nan nan nan nan nan
198 220 181 nan nan nan nan nan nan nan nan nan nan nan nan nan nan nan nan nan nan nan nan nan nan nan nan nan nan nan nan nan nan nan nan nan nan nan nan nan nan nan nan nan
nan 207 207 nan nan nan nan nan nan nan nan nan nan nan nan nan nan nan nan nan nan nan nan nan nan nan nan nan 301 nan nan nan nan nan nan nan nan nan nan nan nan nan nan nan
nan 234 nan nan nan nan nan nan nan nan nan nan nan nan nan nan nan nan nan nan nan nan nan nan nan nan 301 298 nan nan nan nan nan nan nan nan nan nan nan nan nan nan nan nan
nan nan nan 225 nan nan nan nan nan nan nan nan nan nan nan nan nan nan nan nan nan nan nan nan nan nan nan nan nan nan nan nan nan nan nan nan nan nan nan nan nan nan nan nan
nan nan 238 nan nan 249 nan nan nan nan nan nan nan nan nan nan nan nan nan nan nan nan nan nan nan nan nan nan nan nan nan nan nan nan nan nan nan nan nan nan nan nan nan nan
nan nan nan nan 264 nan nan nan nan nan nan nan nan nan nan nan nan nan nan nan nan nan nan nan nan nan nan nan nan nan nan nan nan nan nan nan nan nan nan nan nan nan nan nan
nan nan nan nan nan nan nan nan nan nan nan nan nan nan nan nan nan nan nan nan nan nan nan nan nan nan nan nan nan nan nan nan nan nan nan nan nan nan nan nan nan nan nan nan
nan nan nan nan nan nan nan nan nan nan nan nan nan nan nan nan nan nan nan nan nan nan nan nan nan nan nan nan nan nan nan nan nan nan nan nan nan nan nan nan nan nan nan nan